Brooksville, FL

4:13 PM EDT on September 21, 2017 (GMT -0400)
Hernando County

Weather History for KBKV - March, 2014

Change the Weather History Date:

Monday, March 3, 2014

  Actual Average Record
Temperature  
Mean Temperature 63 °F -  
Max Temperature 78 °F 73 °F 86 °F (2012)
Min Temperature 48 °F 49 °F 28 °F (2009)
Degree Days  
Heating Degree Days 2    
Growing Degree Days 13 (Base 50)    
Moisture  
Dew Point 55 °F    
Average Humidity 82    
Maximum Humidity 100    
Minimum Humidity 48    
Precipitation  
Precipitation 0.00 in - - ()
Sea Level Pressure  
Sea Level Pressure 30.05 in    
Wind  
Wind Speed 4 mph (SW)    
Max Wind Speed 17 mph    
Max Gust Speed 24 mph    
Visibility 8 miles    
Events Fog    
Averages and records for this station are not official NWS values.
T = Trace of Precipitation, MM = Missing Value Source: NWS Daily Summary

Daily Weather History Graph

Daily Weather History Graph

Search for Another Location

Airport or City:

Trip Planner

Search our weather history database for the weather conditions in past years. The results will help you decide how hot, cold, wet, or windy it might be!

Date:

Astronomy

Mar. 03, 2014 Rise Set
Actual Time 6:52 AM EST 6:31 PM EST
Civil Twilight 6:29 AM EST 6:54 PM EST
Nautical Twilight 6:01 AM EST 7:22 PM EST
Astronomical Twilight 5:34 AM EST 7:49 PM EST
Moon 8:15 AM EST (3/3) 9:14 PM EST (3/3)
Length of Visible Light 12h 25m
Length of Day
11h 38m
Waxing Crescent, 8% of the Moon is Illuminated
Mar 3
Waxing Crescent
Mar 8
First Quarter
Mar 16
Full
Mar 23
Last Quarter
Mar 30
New

Hourly Weather History & Observations

Time (EST) Temp. Dew Point Humidity Pressure Visibility Wind Dir Wind Speed Gust Speed Precip Events Conditions
12:53 AM 52.0 °F 51.1 °F 97% 30.09 in 4.0 mi Calm Calm - N/A   Clear
1:08 AM 52.0 °F 51.1 °F 97% 30.08 in 1.8 mi Calm Calm - N/A   Clear
1:17 AM 51.1 °F 50.0 °F 96% 30.08 in 4.0 mi SSE 3.5 mph - N/A   Clear
1:53 AM 53.1 °F 51.1 °F 93% 30.06 in 6.0 mi Calm Calm - N/A   Clear
2:53 AM 53.1 °F 52.0 °F 96% 30.04 in 8.0 mi Calm Calm - N/A   Clear
3:53 AM 48.9 °F 48.0 °F 97% 30.03 in 1.2 mi Calm Calm - N/A   Clear
4:01 AM 48.9 °F 48.0 °F 97% 30.03 in 0.5 mi Calm Calm - N/A Fog Fog
4:43 AM 50.0 °F 48.9 °F 96% 30.05 in 2.0 mi Calm Calm - N/A   Clear
4:50 AM 50.0 °F 48.2 °F 94% 30.05 in 9.0 mi Calm Calm - N/A   Clear
4:53 AM 50.0 °F 48.9 °F 96% 30.05 in 9.0 mi Calm Calm - N/A   Clear
5:53 AM 50.0 °F 48.9 °F 96% 30.06 in 10.0 mi Calm Calm - N/A   Clear
6:53 AM 51.1 °F 50.0 °F 96% 30.05 in 4.0 mi Calm Calm - N/A   Clear
7:01 AM 50.0 °F 50.0 °F 100% 30.06 in 2.5 mi Calm Calm - N/A   Clear
7:53 AM 55.9 °F 54.0 °F 93% 30.08 in 7.0 mi Calm Calm - N/A   Clear
8:53 AM 64.0 °F 59.0 °F 84% 30.09 in 10.0 mi South 8.1 mph - N/A   Clear
9:53 AM 71.1 °F 63.0 °F 75% 30.10 in 10.0 mi SW 9.2 mph - N/A   Scattered Clouds
10:07 AM 71.1 °F 62.1 °F 73% 30.10 in 10.0 mi SW 12.7 mph 19.6 mph N/A   Mostly Cloudy
10:15 AM 71.1 °F 62.1 °F 73% 30.10 in 10.0 mi WSW 16.1 mph - N/A   Scattered Clouds
10:53 AM 73.0 °F 61.0 °F 66% 30.09 in 10.0 mi SW 13.8 mph 21.9 mph N/A   Partly Cloudy
11:53 AM 75.9 °F 57.0 °F 52% 30.08 in 10.0 mi WSW 17.3 mph 24.2 mph 0.00 in   Partly Cloudy
12:53 PM 78.1 °F 57.0 °F 48% 30.05 in 10.0 mi West 11.5 mph - N/A   Partly Cloudy
1:53 PM 75.9 °F 59.0 °F 56% 30.04 in 10.0 mi West 16.1 mph - N/A   Mostly Cloudy
2:53 PM 78.1 °F 60.1 °F 54% 30.01 in 10.0 mi WSW 9.2 mph 18.4 mph N/A   Scattered Clouds
3:53 PM 75.9 °F 61.0 °F 60% 30.01 in 10.0 mi WSW 16.1 mph 20.7 mph N/A   Mostly Cloudy
4:53 PM 75.0 °F 61.0 °F 62% 30.01 in 10.0 mi West 13.8 mph - N/A   Clear
5:53 PM 73.0 °F 60.1 °F 64% 30.02 in 10.0 mi WSW 10.4 mph - N/A   Mostly Cloudy
6:53 PM 68.0 °F 57.9 °F 70% 30.03 in 10.0 mi SW 6.9 mph - 0.00 in   Scattered Clouds
7:53 PM 64.9 °F 59.0 °F 81% 30.03 in 10.0 mi SW 3.5 mph - N/A   Clear
8:53 PM 64.0 °F 59.0 °F 84% 30.04 in 10.0 mi SSW 3.5 mph - N/A   Mostly Cloudy
9:53 PM 63.0 °F 59.0 °F 87% 30.05 in 10.0 mi South 3.5 mph - N/A   Partly Cloudy
10:53 PM 61.0 °F 59.0 °F 93% 30.05 in 10.0 mi Calm Calm - N/A   Partly Cloudy
11:53 PM 61.0 °F 59.0 °F 93% 30.04 in 10.0 mi Calm Calm - N/A   Mostly Cloudy